FW9096 Weather Reports


time (UTC)temp
C
wind
direction
speed
KPH
gust
KPH
rain 1hr
cm
rain 24hr
cm
rain mn
cm
humidity
%
barometer
mb
20260906154546 29 83 0.0 4.8 0.00 0.00 0.00 65 1015.3
20260906154037 29 265 0.0 8.0 0.00 0.00 0.00 65 1015.2
20260906153534 29 317 0.0 8.0 0.00 0.00 0.00 65 1015.1
20260906153033 29 103 0.0 6.4 0.00 0.00 0.00 65 1015.0
20260906152535 29 292 0.0 6.4 0.00 0.00 0.00 66 1015.0
20260906152030 29 143 0.0 4.8 0.00 0.00 0.00 67 1014.9
20260906151529 28 89 0.0 4.8 0.00 0.00 0.00 68 1014.8
20260906151027 28 5 0.0 4.8 0.00 0.00 0.00 68 1014.7
20260906150527 28 150 0.0 4.8 0.00 0.00 0.00 70 1014.8
20260906150037 27 64 0.0 3.2 0.00 0.00 0.00 71 1014.6
20260906145523 27 57 0.0 1.6 0.00 0.00 0.00 72 1014.6
20260906145022 27 60 0.0 1.6 0.00 0.00 0.00 73 1014.6
20260906144526 26 53 0.0 1.6 0.00 0.00 0.00 76 1014.5
20260906144019 26 5 0.0 1.6 0.00 0.00 0.00 76 1014.6
20260906143518 26 114 0.0 1.6 0.00 0.00 0.00 77 1014.7
20260906143017 25 355 0.0 0.0 0.00 0.00 0.00 80 1014.6
20260906142516 25 350 0.0 1.6 0.00 0.00 0.00 81 1014.5
20260906142020 25 350 0.0 4.8 0.00 0.00 0.00 82 1014.5
20260906141518 24 355 0.0 1.6 0.00 0.00 0.00 82 1014.4
20260906141016 24 136 0.0 1.6 0.00 0.00 0.00 82 1014.4
20260906140516 24 59 0.0 1.6 0.00 0.00 0.00 83 1014.4
20260906140021 24 28 0.0 1.6 0.00 0.00 0.00 83 1014.3
20260906135516 23 22 0.0 1.6 0.00 0.00 0.00 83 1014.3
20260906135015 23 249 0.0 1.6 0.00 0.00 0.00 83 1014.3
20260906134534 23 90 0.0 1.6 0.00 0.00 0.00 84 1014.3
20260906134016 23 88 0.0 1.6 0.00 0.00 0.00 85 1014.4
20260906133515 23 88 0.0 3.2 0.00 0.00 0.00 85 1014.4
20260906133015 23 320 0.0 3.2 0.00 0.00 0.00 85 1014.4
20260906132515 23 20 0.0 1.6 0.00 0.00 0.00 86 1014.4
20260906132017 23 5 0.0 1.6 0.00 0.00 0.00 86 1014.4
20260906131515 23 94 0.0 0.0 0.00 0.00 0.00 87 1014.5
20260906131017 23 94 0.0 0.0 0.00 0.00 0.00 87 1014.4
20260906130514 23 94 0.0 0.0 0.00 0.00 0.00 87 1014.5
20260906130014 22 94 0.0 1.6 0.00 0.00 0.00 87 1014.5
20260906125514 22 94 0.0 1.6 0.00 0.00 0.00 87 1014.5
20260906125017 22 137 0.0 1.6 0.00 0.00 0.00 87 1014.5
20260906124513 22 164 0.0 3.2 0.00 0.00 0.00 88 1014.4
20260906124013 22 166 0.0 3.2 0.00 0.00 0.00 88 1014.4
20260906123512 22 159 0.0 0.0 0.00 0.00 0.00 88 1014.4
20260906123020 22 159 0.0 0.0 0.00 0.00 0.00 88 1014.3
20260906122511 22 159 0.0 0.0 0.00 0.00 0.00 88 1014.2
20260906122011 22 159 0.0 0.0 0.00 0.00 0.00 88 1014.1
20260906121509 22 159 0.0 0.0 0.00 0.00 0.00 88 1014.0
20260906121010 22 159 0.0 0.0 0.00 0.00 0.00 88 1014.0
20260906120509 22 159 0.0 0.0 0.00 0.00 0.00 88 1014.0
20260906120007 22 159 0.0 0.0 0.00 0.00 0.00 88 1013.9
20260906115508 22 159 0.0 0.0 0.00 0.00 0.00 88 1013.8
20260906115006 23 159 0.0 0.0 0.00 0.00 0.00 88 1013.7
20260906114509 23 159 0.0 0.0 0.00 0.00 0.00 88 1013.6
20260906114005 23 159 0.0 0.0 0.00 0.00 0.00 88 1013.6
20260906113504 23 159 0.0 1.6 0.00 0.00 0.00 87 1013.5
20260906113004 23 159 0.0 1.6 0.00 0.00 0.00 87 1013.5
20260906112502 23 159 0.0 0.0 0.00 0.00 0.00 87 1013.5
20260906112002 23 159 0.0 0.0 0.00 0.00 0.00 87 1013.5
20260906111501 23 159 0.0 0.0 0.00 0.00 0.00 87 1013.5
20260906111002 23 159 0.0 0.0 0.00 0.00 0.00 87 1013.5
20260906110501 23 159 0.0 0.0 0.00 0.00 0.00 86 1013.5
20260906110002 23 159 0.0 0.0 0.00 0.00 0.00 86 1013.6
20260906105603 23 159 0.0 0.0 0.00 0.00 0.00 86 1013.6
20260906105059 23 159 0.0 0.0 0.00 0.00 0.00 86 1013.5
20260906104628 23 159 0.0 0.0 0.00 0.00 0.00 86 1013.4
20260906104100 23 159 0.0 0.0 0.00 0.00 0.00 86 1013.3
20260906103557 23 159 0.0 0.0 0.00 0.00 0.00 86 1013.3
20260906103057 24 159 0.0 0.0 0.00 0.00 0.00 85 1013.2
20260906102556 24 159 0.0 0.0 0.00 0.00 0.00 85 1013.2
20260906102054 24 159 0.0 0.0 0.00 0.00 0.00 85 1013.2
20260906101554 24 159 0.0 0.0 0.00 0.00 0.00 85 1013.1
20260906101053 24 159 0.0 0.0 0.00 0.00 0.00 85 1013.1
20260906100552 24 159 0.0 0.0 0.00 0.00 0.00 85 1013.0
20260906100051 24 159 0.0 0.0 0.00 0.00 0.00 85 1012.9
20260906095551 24 159 0.0 0.0 0.00 0.00 0.00 85 1012.9
20260906095051 25 162 0.0 0.0 0.00 0.00 0.00 85 1012.9
20260906094551 25 162 0.0 0.0 0.00 0.00 0.00 84 1012.9
20260906094050 25 162 0.0 0.0 0.00 0.00 0.00 84 1012.8
20260906093549 25 162 0.0 0.0 0.00 0.00 0.00 85 1012.8
20260906093103 25 162 0.0 0.0 0.00 0.00 0.00 85 1012.9
20260906092548 25 162 0.0 1.6 0.00 0.00 0.00 85 1012.9
20260906092048 25 162 0.0 1.6 0.00 0.00 0.00 85 1012.9
20260906091548 25 167 0.0 1.6 0.00 0.00 0.00 85 1012.8
20260906091048 25 71 0.0 1.6 0.00 0.00 0.00 86 1012.8
20260906090548 25 71 0.0 3.2 0.00 0.00 0.00 86 1012.8
20260906090046 25 161 0.0 3.2 0.00 0.00 0.00 86 1012.8
20260906085545 25 132 0.0 0.0 0.00 0.00 0.00 86 1012.6
20260906085050 25 133 0.0 1.6 0.00 0.00 0.00 86 1012.6
20260906084546 25 133 0.0 1.6 0.00 0.00 0.00 86 1012.6
20260906084046 25 134 0.0 0.0 0.00 0.00 0.00 86 1012.4
20260906083546 25 134 0.0 1.6 0.00 0.00 0.00 87 1012.3
20260906083046 25 134 0.0 1.6 0.00 0.00 0.00 87 1012.3
20260906082544 25 133 0.0 1.6 0.00 0.00 0.00 87 1012.2
20260906082045 25 133 0.0 1.6 0.00 0.00 0.00 87 1012.2
20260906081544 25 13 0.0 0.0 0.00 0.00 0.00 87 1012.2
20260906081044 25 13 0.0 0.0 0.00 0.00 0.00 87 1012.2
20260906080544 25 13 0.0 0.0 0.00 0.00 0.00 87 1012.2
20260906080043 25 355 0.0 0.0 0.00 0.00 0.00 86 1012.1
20260906075543 25 355 0.0 0.0 0.00 0.00 0.00 86 1012.2
20260906075043 25 355 0.0 0.0 0.00 0.00 0.00 86 1012.2
20260906074543 25 355 0.0 0.0 0.00 0.00 0.00 86 1012.2
20260906074042 25 355 0.0 0.0 0.00 0.00 0.00 85 1012.3
20260906073541 25 355 0.0 0.0 0.00 0.00 0.00 85 1012.4
20260906073041 25 355 0.0 0.0 0.00 0.00 0.00 85 1012.4
20260906072541 25 355 0.0 0.0 0.00 0.00 0.00 85 1012.4
20260906072042 25 355 0.0 0.0 0.00 0.00 0.00 85 1012.5
20260906071542 25 355 0.0 0.0 0.00 0.00 0.00 85 1012.4
20260906071040 25 355 0.0 0.0 0.00 0.00 0.00 84 1012.3
20260906070540 25 355 0.0 0.0 0.00 0.00 0.00 84 1012.3
20260906070040 25 355 0.0 0.0 0.00 0.00 0.00 84 1012.3
20260906065543 25 355 0.0 0.0 0.00 0.00 0.00 83 1012.3
20260906065040 25 355 0.0 0.0 0.00 0.00 0.00 83 1012.4
20260906064539 25 355 0.0 0.0 0.00 0.00 0.00 83 1012.3
20260906064039 25 355 0.0 0.0 0.00 0.00 0.00 83 1012.4
20260906063538 25 355 0.0 0.0 0.00 0.00 0.00 83 1012.5
20260906063039 25 355 0.0 0.0 0.00 0.00 0.00 83 1012.5
20260906062537 25 355 0.0 0.0 0.00 0.00 0.00 82 1012.6
20260906062037 25 355 0.0 0.0 0.00 0.00 0.00 82 1012.5
20260906061537 25 355 0.0 0.0 0.00 0.00 0.00 82 1012.5
20260906061036 25 355 0.0 0.0 0.00 0.00 0.00 82 1012.5
20260906060536 25 355 0.0 0.0 0.00 0.00 0.00 82 1012.5
20260906060037 25 355 0.0 0.0 0.00 0.00 0.00 82 1012.4
20260906055536 25 355 0.0 0.0 0.00 0.00 0.00 81 1012.5
20260906055036 25 355 0.0 0.0 0.00 0.00 0.00 81 1012.4
20260906054535 25 355 0.0 0.0 0.00 0.00 0.00 81 1012.4
20260906054034 25 355 0.0 0.0 0.00 0.00 0.00 81 1012.4
20260906053533 25 355 0.0 0.0 0.00 0.00 0.00 80 1012.5
20260906053039 25 355 0.0 0.0 0.00 0.00 0.00 80 1012.5
20260906052534 25 355 0.0 0.0 0.00 0.00 0.00 80 1012.5
20260906052032 26 355 0.0 0.0 0.00 0.00 0.00 80 1012.5
20260906051533 26 355 0.0 0.0 0.00 0.00 0.00 80 1012.5
20260906051031 26 355 0.0 0.0 0.00 0.00 0.00 80 1012.4
20260906050530 26 355 0.0 0.0 0.00 0.00 0.00 79 1012.3
20260906050029 26 355 0.0 0.0 0.00 0.00 0.00 80 1012.3
20260906045528 26 355 0.0 0.0 0.00 0.00 0.00 79 1012.3
20260906045029 26 355 0.0 0.0 0.00 0.00 0.00 79 1012.3
20260906044529 26 355 0.0 0.0 0.00 0.00 0.00 79 1012.3
20260906044028 26 355 0.0 0.0 0.00 0.00 0.00 78 1012.2
20260906043528 26 355 0.0 0.0 0.00 0.00 0.00 78 1012.2
20260906043030 26 355 0.0 0.0 0.00 0.00 0.00 79 1012.2
20260906042527 26 355 0.0 0.0 0.00 0.00 0.00 78 1012.2
20260906042027 26 355 0.0 0.0 0.00 0.00 0.00 78 1012.1
20260906041528 26 355 0.0 0.0 0.00 0.00 0.00 78 1012.1
20260906041028 26 355 0.0 0.0 0.00 0.00 0.00 78 1012.1
20260906040527 26 355 0.0 0.0 0.00 0.00 0.00 78 1012.0
20260906040034 26 355 0.0 0.0 0.00 0.00 0.00 77 1012.0
20260906035527 26 355 0.0 0.0 0.00 0.00 0.00 77 1012.0
20260906035027 26 355 0.0 0.0 0.00 0.00 0.00 77 1012.0
20260906034533 26 355 0.0 0.0 0.00 0.00 0.00 77 1011.9
20260906034027 26 355 0.0 0.0 0.00 0.00 0.00 77 1011.9
20260906033527 26 355 0.0 0.0 0.00 0.00 0.00 76 1011.9
20260906033027 26 355 0.0 0.0 0.00 0.00 0.00 76 1011.9
20260906032528 26 355 0.0 0.0 0.00 0.00 0.00 76 1011.9
20260906032026 27 355 0.0 0.0 0.00 0.00 0.00 76 1011.9
20260906031525 27 355 0.0 0.0 0.00 0.00 0.00 76 1011.8
20260906031029 27 355 0.0 0.0 0.00 0.00 0.00 76 1011.8
20260906030526 27 355 0.0 0.0 0.00 0.00 0.00 75 1011.7
20260906030025 27 355 0.0 0.0 0.00 0.00 0.00 75 1011.7
20260906025525 27 355 0.0 0.0 0.00 0.00 0.00 75 1011.6
20260906025025 27 355 0.0 0.0 0.00 0.00 0.00 75 1011.5
20260906024525 27 355 0.0 0.0 0.00 0.00 0.00 75 1011.5
20260906024025 27 355 0.0 0.0 0.00 0.00 0.00 74 1011.4
20260906023528 27 355 0.0 0.0 0.00 0.00 0.00 74 1011.4
20260906023025 27 355 0.0 0.0 0.00 0.00 0.00 73 1011.3
20260906022524 27 355 0.0 0.0 0.00 0.00 0.00 73 1011.1
20260906022024 28 355 0.0 0.0 0.00 0.00 0.00 73 1011.1
20260906021523 28 355 0.0 0.0 0.00 0.00 0.00 73 1011.0
20260906021026 28 355 0.0 0.0 0.00 0.00 0.00 73 1011.0
20260906020524 28 355 0.0 0.0 0.00 0.00 0.00 72 1010.9
20260906020026 28 355 0.0 0.0 0.00 0.00 0.00 71 1010.8
20260906015523 28 355 0.0 0.0 0.00 0.00 0.00 71 1010.7
20260906015024 28 355 0.0 0.0 0.00 0.00 0.00 71 1010.6
20260906014528 28 355 0.0 0.0 0.00 0.00 0.00 70 1010.6
20260906014023 29 355 0.0 0.0 0.00 0.00 0.00 70 1010.6
20260906013523 29 355 0.0 0.0 0.00 0.00 0.00 69 1010.5
20260906013028 29 355 0.0 0.0 0.00 0.00 0.00 69 1010.4
20260906012524 30 355 0.0 0.0 0.00 0.00 0.00 68 1010.4
20260906012022 30 355 0.0 0.0 0.00 0.00 0.00 68 1010.4
20260906011522 30 355 0.0 0.0 0.00 0.00 0.00 68 1010.3
20260906011021 30 355 0.0 0.0 0.00 0.00 0.00 67 1010.3
20260906010526 30 355 0.0 0.0 0.00 0.00 0.00 66 1010.2
20260906010022 30 355 0.0 0.0 0.00 0.00 0.00 66 1010.2
20260906005527 31 355 0.0 0.0 0.00 0.00 0.00 66 1010.2
20260906005022 31 355 0.0 0.0 0.00 0.00 0.00 65 1010.2
20260906004522 31 355 0.0 0.0 0.00 0.00 0.00 64 1010.2
20260906004021 31 355 0.0 0.0 0.00 0.00 0.00 64 1010.0
20260906003521 32 355 0.0 0.0 0.00 0.00 0.00 63 1010.0
20260906003022 32 355 0.0 0.0 0.00 0.00 0.00 63 1010.0
20260906002521 32 355 0.0 0.0 0.00 0.00 0.00 63 1010.1
20260906002021 32 355 0.0 0.0 0.00 0.00 0.00 61 1010.1
20260906001521 32 355 0.0 0.0 0.00 0.00 0.00 60 1010.1
20260906001020 32 355 0.0 0.0 0.00 0.00 0.00 61 1010.1
20260906000520 33 355 0.0 0.0 0.00 0.00 0.00 60 1010.1
20260906000022 33 355 0.0 0.0 0.00 0.00 0.00 60 1010.1
20260905235521 33 355 0.0 0.0 0.00 0.00 0.00 59 1010.2
20260905235023 33 355 0.0 0.0 0.00 0.00 0.00 59 1010.2
20260905234521 33 355 0.0 0.0 0.00 0.00 0.00 59 1010.2
20260905234020 33 355 0.0 1.6 0.00 0.00 0.00 58 1010.2
20260905233520 34 355 0.0 1.6 0.00 0.00 0.00 54 1010.2
20260905233027 34 345 0.0 0.0 0.00 0.00 0.00 56 1010.3
20260905232521 34 345 0.0 0.0 0.00 0.00 0.00 55 1010.3
20260905232019 34 345 0.0 3.2 0.00 0.00 0.00 55 1010.2
20260905231519 34 345 0.0 4.8 0.00 0.00 0.00 55 1010.3
20260905231022 35 46 0.0 1.6 0.00 0.00 0.00 56 1010.3
20260905230518 35 27 0.0 4.8 0.00 0.00 0.00 55 1010.4
20260905230019 35 165 0.0 3.2 0.00 0.00 0.00 55 1010.3
20260905225518 35 123 0.0 0.0 0.00 0.00 0.00 56 1010.3
20260905225018 35 123 0.0 0.0 0.00 0.00 0.00 56 1010.2
20260905224518 35 123 0.0 3.2 0.00 0.00 0.00 54 1010.2
20260905224020 35 123 0.0 3.2 0.00 0.00 0.00 54 1010.1
20260905223518 35 62 0.0 1.6 0.00 0.00 0.00 56 1010.0
20260905223018 35 62 0.0 1.6 0.00 0.00 0.00 52 1010.0
20260905222518 36 62 0.0 1.6 0.00 0.00 0.00 51 1009.9
20260905222021 36 62 0.0 0.0 0.00 0.00 0.00 51 1009.9
20260905221529 36 62 0.0 1.6 0.00 0.00 0.00 51 1009.8
20260905221017 36 62 0.0 1.6 0.00 0.00 0.00 51 1009.9
20260905220516 36 62 0.0 1.6 0.00 0.00 0.00 51 1009.9
20260905220016 36 62 0.0 1.6 0.00 0.00 0.00 49 1010.1
20260905215519 36 61 0.0 1.6 0.00 0.00 0.00 53 1010.1
20260905215015 36 61 0.0 1.6 0.00 0.00 0.00 52 1010.1
20260905214515 36 122 0.0 1.6 0.00 0.00 0.00 53 1010.1
20260905214016 36 122 0.0 1.6 0.00 0.00 0.00 50 1010.1
20260905213518 36 122 0.0 1.6 0.00 0.00 0.00 51 1010.2
20260905213016 36 80 0.0 0.0 0.00 0.00 0.00 52 1010.2
20260905212514 37 80 0.0 1.6 0.00 0.00 0.00 49 1010.2
20260905212014 37 80 0.0 0.0 0.00 0.00 0.00 49 1010.1
20260905211526 37 80 0.0 3.2 0.00 0.00 0.00 47 1010.1
20260905211016 37 80 0.0 3.2 0.00 0.00 0.00 44 1010.0
20260905210514 38 76 0.0 3.2 0.00 0.00 0.00 45 1010.1
20260905210014 38 85 0.0 4.8 0.00 0.00 0.00 44 1010.2
20260905205514 38 14 0.0 4.8 0.00 0.00 0.00 41 1010.4
20260905205012 37 231 0.0 1.6 0.00 0.00 0.00 42 1010.4
20260905204513 37 231 0.0 1.6 0.00 0.00 0.00 43 1010.4
20260905204012 37 169 0.0 3.2 0.00 0.00 0.00 44 1010.4
20260905203513 37 177 0.0 3.2 0.00 0.00 0.00 47 1010.3
20260905203016 37 218 0.0 1.6 0.00 0.00 0.00 44 1010.2
20260905202510 37 218 0.0 1.6 0.00 0.00 0.00 46 1010.4
20260905202009 37 216 0.0 1.6 0.00 0.00 0.00 48 1010.5
20260905201509 36 223 0.0 3.2 0.00 0.00 0.00 46 1010.6
20260905201008 36 215 0.0 3.2 0.00 0.00 0.00 47 1010.6
20260905200508 36 166 0.0 1.6 0.00 0.00 0.00 47 1010.6
20260905200011 36 147 0.0 1.6 0.00 0.00 0.00 48 1010.8
20260905195506 36 148 0.0 0.0 0.00 0.00 0.00 46 1010.9
20260905195007 37 148 0.0 0.0 0.00 0.00 0.00 49 1010.9
20260905194506 37 148 0.0 0.0 0.00 0.00 0.00 46 1010.8
20260905194006 37 148 0.0 0.0 0.00 0.00 0.00 44 1010.8
20260905193505 37 148 0.0 0.0 0.00 0.00 0.00 43 1011.0
20260905193005 37 148 0.0 0.0 0.00 0.00 0.00 42 1011.0
20260905192504 38 150 0.0 4.8 0.00 0.00 0.00 42 1011.0
20260905192003 38 150 0.0 4.8 0.00 0.00 0.00 41 1011.0
20260905191504 38 36 0.0 4.8 0.00 0.00 0.00 41 1011.1
20260905191006 38 102 0.0 4.8 0.00 0.00 0.00 40 1011.0
20260905190507 37 142 0.0 8.0 0.00 0.00 0.00 40 1011.1
20260905190002 37 103 0.0 8.0 0.00 0.00 0.00 46 1011.1
20260905185501 37 169 0.0 0.0 0.00 0.00 0.00 46 1011.2
20260905185002 37 169 0.0 1.6 0.00 0.00 0.00 41 1011.2
20260905184504 38 169 0.0 3.2 0.00 0.00 0.00 40 1011.3
20260905184001 38 99 0.0 3.2 0.00 0.00 0.00 39 1011.3
20260905183601 38 91 0.0 1.6 0.00 0.00 0.00 40 1011.3
20260905183102 38 91 0.0 3.2 0.00 0.00 0.00 40 1011.4
20260905182558 38 99 0.0 3.2 0.00 0.00 0.00 41 1011.3
20260905182057 38 279 0.0 3.2 0.00 0.00 0.00 41 1011.4
20260905181555 38 105 0.0 3.2 0.00 0.00 0.00 41 1011.5
20260905181059 38 5 0.0 4.8 0.00 0.00 0.00 41 1011.5
20260905180554 37 101 0.0 4.8 0.00 0.00 0.00 43 1011.6
20260905180052 37 76 0.0 1.6 0.00 0.00 0.00 42 1011.7
20260905175556 37 77 0.0 3.2 0.00 0.00 0.00 44 1011.8
20260905175051 37 28 0.0 4.8 0.00 0.00 0.00 43 1011.9
20260905174550 37 220 0.0 4.8 0.00 0.00 0.00 44 1012.0
20260905174050 37 128 0.0 3.2 0.00 0.00 0.00 48 1012.0
20260905173551 37 115 0.0 3.2 0.00 0.00 0.00 46 1012.1
20260905173050 37 136 0.0 3.2 0.00 0.00 0.00 46 1012.0
20260905172549 37 137 0.0 3.2 0.00 0.00 0.00 49 1012.0
20260905172049 37 96 0.0 3.2 0.00 0.00 0.00 47 1012.0
20260905171551 37 307 0.0 4.8 0.00 0.00 0.00 45 1012.1
20260905171047 37 307 1.6 4.8 0.00 0.00 0.00 46 1012.2
20260905170547 36 64 0.0 3.2 0.00 0.00 0.00 47 1012.3
20260905170048 36 128 0.0 3.2 0.00 0.00 0.00 47 1012.4
20260905165546 36 82 0.0 3.2 0.00 0.00 0.00 48 1012.4
20260905165046 36 32 0.0 4.8 0.00 0.00 0.00 51 1012.5
20260905164545 36 32 0.0 4.8 0.00 0.00 0.00 48 1012.5
20260905164043 36 47 0.0 3.2 0.00 0.00 0.00 48 1012.5
20260905163543 36 72 0.0 0.0 0.00 0.00 0.00 49 1012.6
20260905163043 36 72 0.0 3.2 0.00 0.00 0.00 50 1012.6
20260905162542 36 61 0.0 1.6 0.00 0.00 0.00 50 1012.7
20260905162042 36 37 0.0 1.6 0.00 0.00 0.00 49 1012.7
20260905161540 35 38 0.0 1.6 0.00 0.00 0.00 51 1012.7
20260905161040 35 38 0.0 1.6 0.00 0.00 0.00 51 1012.8
20260905160540 35 37 0.0 1.6 0.00 0.00 0.00 51 1012.8
20260905160039 35 26 0.0 3.2 0.00 0.00 0.00 49 1012.8
20260905155538 35 26 0.0 3.2 0.00 0.00 0.00 49 1012.8
20260905155036 35 153 0.0 1.6 0.00 0.00 0.00 50 1012.8